Boulder Muni, Boulder, CO, CO

4:30 AM MST on December 13, 2019 (GMT -0700)
Boulder Muni, Boulder, CO

Weather History for KBDU - November, 2019

Change the Weather History Date:

Tuesday, November 12, 2019

  Actual Average Record
Temperature  
Mean Temperature 37 °F -  
Max Temperature 55 °F - 68 °F (2016)
Min Temperature 19 °F - 1 °F (2014)
Degree Days  
Heating Degree Days 28    
Month to date heating degree days 297  
Cooling Degree Days 0    
Month to date cooling degree days 0  
Moisture  
Dew Point 20 °F    
Average Humidity 56    
Maximum Humidity 100    
Minimum Humidity 12    
Precipitation  
Precipitation 0.00 in - 0.02 in (2014)
Snow  
Snow 0.00 in - - ()
Snow Depth 0.00 in    
Sea Level Pressure  
Sea Level Pressure 30.10 in    
Wind  
Wind Speed 1 mph (WNW)    
Max Wind Speed 8 mph    
Max Gust Speed 22 mph    
Visibility 10 miles    
Events      
T = Trace of Precipitation, MM = Missing Value Source: NWS Daily Summary

Daily Weather History Graph

Daily Weather History Graph

Search for Another Location

Airport or City:

Astronomy

Nov. 12, 2019 Rise Set
Actual Time 6:42 AM MST 4:47 PM MST
Civil Twilight 6:13 AM MST 5:15 PM MST
Nautical Twilight 5:41 AM MST 5:48 PM MST
Astronomical Twilight 5:09 AM MST 6:20 PM MST
Moon 5:15 PM MST (11/12) 6:36 AM MST (11/12)
Length of Visible Light 11h 02m
Length of Day
10h 04m
Full, 100% of the Moon is Illuminated
Nov 12
Full
Nov 19
Last Quarter
Nov 26
New
Dec 3
First Quarter
Dec 11
Full

Hourly Weather History & Observations

Time (MST) Temp. Windchill Dew Point Humidity Pressure Visibility Wind Dir Wind Speed Gust Speed Precip Events Conditions
12:12 AM 19.4 °F - 19.4 °F 100% 30.37 in 10.0 mi Calm Calm - N/A   Clear
12:30 AM 19.4 °F - 17.6 °F 93% 30.37 in 10.0 mi Calm Calm - N/A   Clear
12:48 AM 21.2 °F - 19.4 °F 93% 30.37 in 10.0 mi Calm Calm - N/A   Clear
1:12 AM 19.4 °F - 19.4 °F 100% 30.35 in 10.0 mi Calm Calm - N/A   Clear
1:30 AM 21.2 °F - 19.4 °F 93% 30.35 in 10.0 mi Calm Calm - N/A   Clear
1:48 AM 21.2 °F 16.4 °F 19.4 °F 93% 30.34 in 10.0 mi West 3.5 mph - N/A   Clear
2:12 AM 21.2 °F - 19.4 °F 93% 30.33 in 10.0 mi Calm Calm - N/A   Clear
2:30 AM 21.2 °F - 19.4 °F 93% 30.32 in 10.0 mi Calm Calm - N/A   Clear
2:48 AM 19.4 °F - 17.6 °F 93% 30.31 in 10.0 mi Calm Calm - N/A   Clear
3:12 AM 21.2 °F - 17.6 °F 86% 30.30 in 10.0 mi Calm Calm - N/A   Clear
3:30 AM 21.2 °F 16.4 °F 19.4 °F 93% 30.28 in 10.0 mi SW 3.5 mph - N/A   Clear
3:48 AM 21.2 °F - 19.4 °F 93% 30.27 in 10.0 mi Calm Calm - N/A   Clear
4:12 AM 19.4 °F - 17.6 °F 93% 30.26 in 10.0 mi Calm Calm - N/A   Clear
4:30 AM 19.4 °F - 17.6 °F 93% 30.24 in 10.0 mi Calm Calm - N/A   Clear
4:48 AM 19.4 °F - 19.4 °F 100% 30.24 in 10.0 mi Calm Calm - N/A   Clear
5:12 AM 21.2 °F - 17.6 °F 86% 30.23 in 10.0 mi Calm Calm - N/A   Clear
5:30 AM 19.4 °F 14.3 °F 17.6 °F 93% 30.21 in 10.0 mi WSW 3.5 mph - N/A   Clear
5:48 AM 21.2 °F - 19.4 °F 93% 30.21 in 10.0 mi Calm Calm - N/A   Clear
6:12 AM 21.2 °F - 17.6 °F 86% 30.20 in 10.0 mi Calm Calm - N/A   Clear
6:30 AM 19.4 °F - 15.8 °F 86% 30.20 in 10.0 mi Calm Calm - N/A   Clear
6:48 AM 21.2 °F - 17.6 °F 86% 30.20 in 10.0 mi Calm Calm - N/A   Clear
7:12 AM 23.0 °F - 17.6 °F 80% 30.20 in 10.0 mi Calm Calm - N/A   Clear
7:48 AM 24.8 °F - 19.4 °F 80% 30.20 in 10.0 mi Calm Calm - N/A   Clear
8:12 AM 26.6 °F - 21.2 °F 80% 30.20 in 10.0 mi Calm Calm - N/A   Clear
8:30 AM 30.2 °F - 23.0 °F 75% 30.20 in 10.0 mi Calm Calm - N/A   Clear
8:48 AM 30.2 °F 26.7 °F 23.0 °F 75% 30.19 in 10.0 mi NE 3.5 mph - N/A   Clear
9:12 AM 30.2 °F - 23.0 °F 75% 30.18 in 10.0 mi Calm Calm - N/A   Clear
9:30 AM 32.0 °F - 24.8 °F 75% 30.18 in 10.0 mi Calm Calm - N/A   Clear
9:48 AM 32.0 °F - 23.0 °F 69% 30.16 in 10.0 mi Calm Calm - N/A   Clear
10:30 AM 35.6 °F - 23.0 °F 60% 30.14 in 10.0 mi Calm Calm - N/A   Clear
10:48 AM 37.4 °F - 23.0 °F 56% 30.13 in 10.0 mi Calm Calm - N/A   Clear
11:12 AM 39.2 °F 37.0 °F 23.0 °F 52% 30.11 in 10.0 mi West 3.5 mph - N/A   Clear
11:30 AM 41.0 °F - 21.2 °F 45% 30.10 in 10.0 mi Calm Calm - N/A   Clear
11:48 AM 41.0 °F - 23.0 °F 49% 30.08 in 10.0 mi Calm Calm - N/A   Clear
12:12 PM 41.0 °F - 37.4 °F 87% 30.07 in 10.0 mi Calm Calm - N/A   Clear
12:30 PM 41.0 °F - 37.4 °F 87% 30.06 in 10.0 mi Calm Calm - N/A   Clear
12:48 PM 42.8 °F - 39.2 °F 87% 30.05 in 10.0 mi Calm Calm - N/A   Clear
1:12 PM 50.0 °F - 28.4 °F 43% 30.04 in 10.0 mi Calm Calm - N/A   Clear
1:30 PM 51.8 °F - 30.2 °F 44% 30.03 in 10.0 mi Calm Calm - N/A   Clear
1:48 PM 51.8 °F - 26.6 °F 38% 30.03 in 10.0 mi North 4.6 mph - N/A   Clear
2:12 PM 51.8 °F - 23.0 °F 33% 30.03 in 10.0 mi North 5.8 mph - N/A   Clear
2:30 PM 51.8 °F - 21.2 °F 30% 30.02 in 10.0 mi North 3.5 mph - N/A   Clear
2:53 PM 51.8 °F - 23.0 °F 33% 30.01 in 10.0 mi Calm Calm - N/A   Clear
3:12 PM 53.6 °F - 21.2 °F 28% 30.00 in 10.0 mi Calm Calm - N/A   Clear
3:30 PM 53.6 °F - 23.0 °F 30% 29.99 in 10.0 mi Calm Calm - N/A   Clear
3:48 PM 53.6 °F - 23.0 °F 30% 29.98 in 10.0 mi Calm Calm - N/A   Clear
4:11 PM 53.6 °F - 23.0 °F 30% 29.98 in 10.0 mi Calm Calm - N/A   Clear
4:29 PM 51.8 °F - 23.0 °F 33% 29.97 in 10.0 mi Calm Calm - N/A   Clear
4:53 PM 46.4 °F 43.5 °F 23.0 °F 40% 29.97 in 10.0 mi NNE 5.8 mph - N/A   Clear
5:12 PM 44.6 °F 41.4 °F 23.0 °F 43% 29.98 in 7.0 mi NNW 5.8 mph - N/A   Clear
5:30 PM 44.6 °F 42.2 °F 23.0 °F 43% 29.98 in 10.0 mi WSW 4.6 mph - N/A   Clear
5:48 PM 44.6 °F - 24.8 °F 46% 29.99 in 10.0 mi Calm Calm - N/A   Clear
6:30 PM 42.8 °F - 24.8 °F 49% 29.98 in 10.0 mi Calm Calm - N/A   Clear
6:54 PM 41.0 °F 38.0 °F 24.8 °F 53% 29.97 in 10.0 mi SSW 4.6 mph - N/A   Clear
7:12 PM 37.4 °F - 24.8 °F 60% 29.96 in 10.0 mi Calm Calm - N/A   Clear
7:30 PM 37.4 °F - 23.0 °F 56% 29.97 in 10.0 mi Calm Calm - N/A   Clear
8:12 PM 39.2 °F - 24.8 °F 56% 29.95 in 10.0 mi Calm Calm - N/A   Clear
8:30 PM 42.8 °F 38.6 °F 19.4 °F 39% 29.95 in 10.0 mi SW 6.9 mph - N/A   Clear
8:48 PM 41.0 °F 35.8 °F 17.6 °F 39% 29.94 in 10.0 mi NW 8.1 mph - N/A   Clear
9:12 PM 55.4 °F - 5.0 °F 13% 29.93 in 10.0 mi SW 8.1 mph 17.3 mph N/A   Clear
9:30 PM 46.4 °F 41.9 °F 15.8 °F 29% 29.93 in 10.0 mi NNE 9.2 mph - N/A   Clear
9:48 PM 50.0 °F - 12.2 °F 22% 29.91 in 10.0 mi Calm Calm - N/A   Clear
10:12 PM 50.0 °F - 8.6 °F 19% 29.91 in 10.0 mi Calm Calm - N/A   Clear
10:30 PM 53.6 °F - 6.8 °F 15% 29.91 in 10.0 mi NW 4.6 mph - N/A   Clear
10:53 PM 55.4 °F - 5.0 °F 13% 29.89 in 10.0 mi WSW 5.8 mph - N/A   Clear
11:12 PM 55.4 °F - 5.0 °F 13% 29.88 in 10.0 mi SW 8.1 mph - N/A   Clear
11:30 PM 55.4 °F - 8.6 °F 15% 29.87 in 10.0 mi West 10.4 mph - N/A   Clear
11:48 PM 55.4 °F - 6.8 °F 14% 29.86 in 10.0 mi WSW 16.1 mph 21.9 mph N/A   Clear